GW6635 Weather Reports


Display with metric or nautical units.
time (UTC)temp
F
wind
direction
speed
MPH
gust
MPH
rain 1hr
in
rain 24hr
in
rain mn
in
humidity
%
barometer
mb
20260505223826 88 184 3.0 6.0 0.00 0.00 0.00 57 1003.6
20260505223323 89 163 3.0 4.0 0.00 0.00 0.00 56 1003.6
20260505222818 91 166 2.0 7.0 0.00 0.00 0.00 54 1003.6
20260505222315 90 245 3.0 4.0 0.00 0.00 0.00 48 1003.3
20260505221812 90 258 2.0 7.0 0.00 0.00 0.00 49 1003.5
20260505221309 91 270 1.0 4.0 0.00 0.00 0.00 48 1003.6
20260505220806 91 212 2.0 4.0 0.00 0.00 0.00 47 1003.6
20260505220303 91 198 3.0 8.0 0.00 0.00 0.00 48 1003.7
20260505215801 92 162 3.0 9.0 0.00 0.00 0.00 47 1003.7
20260505215258 91 237 4.0 8.0 0.00 0.00 0.00 47 1003.7
20260505214756 91 271 4.0 8.0 0.00 0.00 0.00 46 1003.5
20260505214253 92 232 4.0 7.0 0.00 0.00 0.00 45 1003.7
20260505213750 91 250 3.0 7.0 0.00 0.00 0.00 46 1003.7
20260505213248 91 215 3.0 6.0 0.00 0.00 0.00 48 1003.9
20260505212743 90 258 5.0 10.0 0.00 0.00 0.00 48 1003.9
20260505212241 90 262 4.0 7.0 0.00 0.00 0.00 48 1004.0
20260505211738 91 262 3.0 11.0 0.00 0.00 0.00 48 1003.9
20260505211235 90 260 3.0 9.0 0.00 0.00 0.00 47 1004.1
20260505210731 90 255 7.0 9.0 0.00 0.00 0.00 48 1003.9
20260505210228 91 216 4.0 9.0 0.00 0.00 0.00 48 1004.2
20260505205726 91 114 5.0 9.0 0.00 0.00 0.00 48 1004.2
20260505205224 91 213 2.0 2.0 0.00 0.00 0.00 52 1004.1
20260505204720 90 233 2.0 6.0 0.00 0.00 0.00 51 1004.2
20260505204218 89 260 3.0 7.0 0.00 0.00 0.00 54 1004.4
20260505203715 89 186 3.0 6.0 0.00 0.00 0.00 55 1004.4
20260505203212 88 239 4.0 6.0 0.00 0.00 0.00 54 1004.5
20260505202708 88 199 3.0 8.0 0.00 0.00 0.00 54 1004.5
20260505202204 88 205 4.0 6.0 0.00 0.00 0.00 55 1004.6
20260505201700 89 179 5.0 14.0 0.00 0.00 0.00 53 1004.5
20260505201158 89 177 2.0 6.0 0.00 0.00 0.00 55 1004.5
20260505200656 88 226 4.0 8.0 0.00 0.00 0.00 56 1004.6
20260505200153 88 202 6.0 9.0 0.00 0.00 0.00 54 1004.6
20260505195648 88 239 2.0 7.0 0.00 0.00 0.00 58 1004.7
20260505195146 88 168 2.0 10.0 0.00 0.00 0.00 58 1004.6
20260505194643 87 225 5.0 8.0 0.00 0.00 0.00 58 1004.5
20260505194139 86 321 2.0 9.0 0.00 0.00 0.00 60 1004.8
20260505193636 87 215 4.0 8.0 0.00 0.00 0.00 59 1004.6
20260505193133 86 304 3.0 6.0 0.00 0.00 0.00 59 1004.6
20260505192632 86 210 6.0 13.0 0.00 0.00 0.00 59 1004.7
20260505192129 86 226 4.0 10.0 0.00 0.00 0.00 60 1004.7
20260505191627 86 238 3.0 10.0 0.00 0.00 0.00 61 1004.8
20260505191125 85 227 3.0 7.0 0.00 0.00 0.00 61 1004.8
20260505190620 84 158 4.0 7.0 0.00 0.00 0.00 62 1004.8
20260505190115 84 143 4.0 13.0 0.00 0.00 0.00 62 1005.0
20260505185613 85 260 6.0 8.0 0.00 0.00 0.00 61 1004.9
20260505185109 85 124 4.0 11.0 0.00 0.00 0.00 59 1005.1
20260505184605 84 149 2.0 6.0 0.00 0.00 0.00 64 1005.1
20260505184102 84 137 4.0 8.0 0.00 0.00 0.00 63 1004.9
20260505183559 84 340 2.0 10.0 0.00 0.00 0.00 62 1005.0
20260505183057 84 343 4.0 6.0 0.00 0.00 0.00 61 1004.8
20260505182553 83 91 5.0 8.0 0.00 0.00 0.00 62 1005.0
20260505182050 83 257 7.0 10.0 0.00 0.00 0.00 62 1004.9
20260505181546 83 228 5.0 8.0 0.00 0.00 0.00 62 1005.0
20260505181044 83 201 5.0 13.0 0.00 0.00 0.00 62 1005.0
20260505180539 83 158 9.0 14.0 0.00 0.00 0.00 61 1005.1
20260505180038 83 184 4.0 15.0 0.00 0.00 0.00 63 1005.1
20260505175537 83 169 3.0 13.0 0.00 0.00 0.00 62 1005.2
20260505175035 83 150 7.0 11.0 0.00 0.00 0.00 62 1005.1
20260505174532 83 98 7.0 10.0 0.00 0.00 0.00 62 1005.1
20260505174027 83 184 6.0 9.0 0.00 0.00 0.00 63 1005.3
20260505173524 82 247 4.0 10.0 0.00 0.00 0.00 63 1005.3
20260505173021 82 224 2.0 6.0 0.00 0.00 0.00 65 1005.1
20260505172519 82 242 4.0 13.0 0.00 0.00 0.00 63 1005.2
20260505172015 82 258 4.0 8.0 0.00 0.00 0.00 65 1005.2
20260505171510 82 193 2.0 10.0 0.00 0.00 0.00 65 1005.4
20260505171008 82 241 3.0 13.0 0.00 0.00 0.00 66 1005.3
20260505170504 81 267 2.0 11.0 0.00 0.00 0.00 65 1005.4
20260505170000 81 209 4.0 13.0 0.00 0.00 0.00 65 1005.4
20260505165456 82 202 8.0 11.0 0.00 0.00 0.00 64 1005.0
20260505164951 81 187 3.0 7.0 0.00 0.00 0.00 66 1005.2
20260505164448 80 215 6.0 13.0 0.00 0.00 0.00 66 1005.2
20260505163946 80 195 2.0 9.0 0.00 0.00 0.00 66 1005.1
20260505163444 80 237 6.0 14.0 0.00 0.00 0.00 65 1005.2
20260505162944 80 348 7.0 19.0 0.00 0.00 0.00 66 1005.1
20260505162439 80 245 6.0 13.0 0.00 0.00 0.00 66 1005.1
20260505161936 80 200 3.0 15.0 0.00 0.00 0.00 67 1005.1
20260505161432 80 304 7.0 14.0 0.00 0.00 0.00 65 1004.9
20260505160930 81 137 9.0 15.0 0.00 0.00 0.00 65 1004.9
20260505160428 80 240 2.0 6.0 0.00 0.00 0.00 69 1004.8
20260505152904 78 202 3.0 7.0 0.00 0.00 0.00 72 1005.1
20260505152401 78 210 6.0 15.0 0.00 0.00 0.00 72 1004.9
20260505151901 78 142 2.0 15.0 0.00 0.00 0.00 73 1005.1
20260505151358 77 198 4.0 9.0 0.00 0.00 0.00 73 1005.1
20260505150855 77 253 5.0 11.0 0.00 0.00 0.00 74 1005.0
20260505150353 77 204 11.0 15.0 0.00 0.00 0.00 74 1005.1
20260505140322 73 188 4.0 13.0 0.00 0.00 0.00 79 1004.9
20260505130246 72 194 2.0 9.0 0.00 0.00 0.00 80 1004.9
20260505124736 72 165 1.0 7.0 0.00 0.00 0.00 81 1004.7
20260505124233 72 216 6.0 9.0 0.00 0.00 0.00 81 1004.8
20260505123729 72 172 3.0 7.0 0.00 0.00 0.00 81 1004.4
20260505123226 72 213 6.0 10.0 0.00 0.00 0.00 81 1004.3
20260505122722 72 149 9.0 13.0 0.00 0.00 0.00 81 1004.4
20260505122220 72 153 5.0 8.0 0.00 0.00 0.00 81 1004.5
20260505121716 72 198 2.0 11.0 0.00 0.00 0.00 81 1004.7
20260505121213 72 207 5.0 11.0 0.00 0.00 0.00 81 1004.5
20260505120709 72 198 2.0 14.0 0.00 0.00 0.00 81 1004.5
20260505120205 72 193 4.0 11.0 0.00 0.00 0.00 81 1004.3
20260505115704 72 150 3.0 10.0 0.00 0.00 0.00 81 1004.3
20260505115203 72 305 3.0 6.0 0.00 0.00 0.00 81 1004.4
20260505114659 72 166 4.0 9.0 0.00 0.00 0.00 81 1004.3
20260505114155 72 161 6.0 11.0 0.00 0.00 0.00 81 1004.2
20260505113652 72 171 4.0 9.0 0.00 0.00 0.00 81 1004.1
20260505113149 72 231 9.0 13.0 0.00 0.00 0.00 81 1004.0
20260505112645 72 211 5.0 10.0 0.00 0.00 0.00 81 1004.0
20260505112143 71 228 6.0 8.0 0.00 0.00 0.00 81 1004.2
20260505111642 71 246 5.0 10.0 0.00 0.00 0.00 81 1004.0
20260505111138 71 159 4.0 7.0 0.00 0.00 0.00 81 1003.8
20260505110635 71 168 6.0 10.0 0.00 0.00 0.00 81 1004.1
20260505110132 71 205 4.0 8.0 0.00 0.00 0.00 81 1003.9
20260505102108 72 162 1.0 9.0 0.00 0.00 0.00 80 1004.3
20260505101606 72 208 2.0 4.0 0.00 0.00 0.00 80 1004.3
20260505101102 72 199 9.0 14.0 0.00 0.00 0.00 80 1004.1
20260505100559 72 317 4.0 14.0 0.00 0.00 0.00 80 1004.2
20260505100056 72 127 6.0 11.0 0.00 0.00 0.00 80 1004.3
20260505095552 72 259 5.0 11.0 0.00 0.00 0.00 80 1004.5
20260505095049 72 281 5.0 13.0 0.00 0.00 0.00 80 1004.3
20260505094545 72 176 5.0 13.0 0.00 0.00 0.00 80 1004.5
20260505094041 72 194 2.0 10.0 0.00 0.00 0.00 80 1004.5
20260505093538 72 229 4.0 7.0 0.00 0.00 0.00 80 1004.4
20260505093035 72 246 6.0 15.0 0.00 0.00 0.00 80 1004.4
20260505092533 72 114 5.0 11.0 0.00 0.00 0.00 80 1004.4
20260505092031 72 216 2.0 3.0 0.00 0.00 0.00 80 1004.5
20260505091527 72 194 2.0 10.0 0.00 0.00 0.00 80 1004.5
20260505091026 72 212 4.0 10.0 0.00 0.00 0.00 80 1004.7
20260505090524 71 259 6.0 13.0 0.00 0.00 0.00 80 1004.5
20260505090021 72 163 3.0 16.0 0.00 0.00 0.00 80 1004.5
20260505085519 71 168 6.0 15.0 0.00 0.00 0.00 80 1004.5
20260505085017 71 120 3.0 10.0 0.00 0.00 0.00 80 1004.4
20260505084515 71 88 6.0 11.0 0.00 0.00 0.00 80 1004.5
20260505084012 71 228 3.0 14.0 0.00 0.00 0.00 80 1004.5
20260505083509 71 178 9.0 11.0 0.00 0.00 0.00 81 1004.6
20260505083006 71 183 5.0 11.0 0.00 0.00 0.00 80 1004.6
20260505082502 71 206 9.0 14.0 0.00 0.00 0.00 80 1004.5
20260505081959 71 209 4.0 15.0 0.00 0.00 0.00 80 1004.7
20260505081455 71 162 4.0 9.0 0.00 0.00 0.00 80 1004.8
20260505080952 71 99 5.0 14.0 0.00 0.00 0.00 80 1004.6
20260505080448 71 265 4.0 11.0 0.00 0.00 0.00 80 1004.4
20260505075944 71 184 5.0 9.0 0.00 0.00 0.00 79 1004.7
20260505075441 72 138 2.0 8.0 0.00 0.00 0.00 79 1004.8
20260505074938 72 184 5.0 16.0 0.00 0.00 0.00 79 1004.8
20260505074435 72 222 8.0 19.0 0.00 0.00 0.00 79 1004.9
20260505073932 72 236 4.0 9.0 0.00 0.00 0.00 79 1005.0
20260505073430 72 150 8.0 11.0 0.00 0.00 0.00 78 1005.2
20260505072927 72 277 4.0 13.0 0.00 0.00 0.00 78 1005.2
20260505072423 72 172 6.0 16.0 0.00 0.00 0.00 78 1005.4
20260505071919 72 197 6.0 11.0 0.00 0.00 0.00 77 1005.4
20260505071415 72 196 6.0 8.0 0.00 0.00 0.00 77 1005.3
20260505070914 72 173 3.0 17.0 0.00 0.00 0.00 77 1005.3
20260505070409 72 228 7.0 10.0 0.00 0.00 0.00 77 1005.6
20260505065905 73 247 3.0 11.0 0.00 0.00 0.00 76 1005.6
20260505065402 73 145 8.0 15.0 0.00 0.00 0.00 76 1005.8
20260505064859 73 192 5.0 10.0 0.00 0.00 0.00 76 1005.7
20260505064356 73 192 1.0 8.0 0.00 0.00 0.00 76 1005.8
20260505063855 73 189 8.0 14.0 0.00 0.00 0.00 76 1005.9
20260505063355 73 162 3.0 7.0 0.00 0.00 0.00 76 1005.8
20260505062852 73 208 2.0 8.0 0.00 0.00 0.00 75 1005.7
20260505062349 73 164 2.0 10.0 0.00 0.00 0.00 75 1005.7
20260505061846 73 150 6.0 10.0 0.00 0.00 0.00 75 1005.7
20260505061344 73 193 5.0 10.0 0.00 0.00 0.00 75 1006.2
20260505060842 72 211 2.0 11.0 0.00 0.00 0.00 75 1005.8
20260505060338 73 189 4.0 8.0 0.00 0.00 0.00 74 1006.1
20260505055834 72 185 5.0 10.0 0.00 0.00 0.00 74 1006.0
20260505055330 73 195 5.0 7.0 0.00 0.00 0.00 74 1006.1
20260505054828 73 152 1.0 7.0 0.00 0.00 0.00 74 1006.0
20260505054325 73 164 1.0 9.0 0.00 0.00 0.00 74 1006.1
20260505053823 73 181 2.0 7.0 0.00 0.00 0.00 73 1006.2
20260505053320 73 212 4.0 6.0 0.00 0.00 0.00 73 1006.2
20260505052817 73 196 5.0 7.0 0.00 0.00 0.00 73 1006.4
20260505052314 73 180 3.0 7.0 0.00 0.00 0.00 73 1006.3
20260505051811 73 218 4.0 7.0 0.00 0.00 0.00 73 1006.2
20260505051308 73 225 3.0 7.0 0.00 0.00 0.00 72 1006.4
20260505050806 73 196 4.0 10.0 0.00 0.00 0.00 72 1006.4
20260505050305 73 141 2.0 10.0 0.00 0.00 0.00 72 1006.2
20260505041734 74 116 4.0 6.0 0.00 0.00 0.00 69 1006.6
20260505041231 74 163 2.0 9.0 0.00 0.00 0.00 69 1006.6
20260505040729 74 200 3.0 11.0 0.00 0.00 0.00 68 1006.6
20260505040226 74 224 3.0 9.0 0.00 0.00 0.00 68 1006.7
20260505035723 74 204 4.0 8.0 0.00 0.00 0.00 68 1006.6
20260505035219 74 129 0.0 3.0 0.00 0.00 0.00 68 1006.5
20260505034716 74 145 1.0 4.0 0.00 0.00 0.00 67 1006.6
20260505034213 74 171 4.0 7.0 0.00 0.00 0.00 67 1006.5
20260505033709 74 224 5.0 14.0 0.00 0.00 0.00 67 1006.5
20260505033207 74 189 1.0 6.0 0.00 0.00 0.00 67 1006.6
20260505032705 74 224 5.0 7.0 0.00 0.00 0.00 67 1006.5
20260505032200 74 156 3.0 6.0 0.00 0.00 0.00 67 1006.6
20260505031658 74 147 3.0 6.0 0.00 0.00 0.00 67 1006.6
20260505031154 74 140 2.0 4.0 0.00 0.00 0.00 67 1006.7
20260505030651 75 185 4.0 6.0 0.00 0.00 0.00 67 1006.5
20260505030147 75 147 2.0 8.0 0.00 0.00 0.00 66 1006.7
20260505025643 75 161 2.0 7.0 0.00 0.00 0.00 66 1006.6
20260505025142 75 153 1.0 6.0 0.00 0.00 0.00 66 1006.5
20260505024639 75 102 1.0 4.0 0.00 0.00 0.00 66 1006.9
20260505024136 75 214 5.0 7.0 0.00 0.00 0.00 65 1006.7
20260505023633 75 152 3.0 6.0 0.00 0.00 0.00 65 1006.6
20260505023131 75 180 2.0 6.0 0.00 0.00 0.00 65 1006.5
20260505022628 75 144 2.0 6.0 0.00 0.00 0.00 65 1006.2
20260505022125 75 220 2.0 8.0 0.00 0.00 0.00 64 1006.6
20260505021621 75 174 1.0 9.0 0.00 0.00 0.00 64 1006.2
20260505021118 75 173 4.0 9.0 0.00 0.00 0.00 64 1006.4
20260505020614 76 251 1.0 7.0 0.00 0.00 0.00 64 1006.3
20260505020110 76 184 2.0 6.0 0.00 0.00 0.00 64 1006.4
20260505015607 76 246 3.0 11.0 0.00 0.00 0.00 63 1006.4
20260505015104 76 130 2.0 7.0 0.00 0.00 0.00 63 1006.3
20260505014601 76 194 4.0 6.0 0.00 0.00 0.00 63 1006.4
20260505014058 76 180 3.0 7.0 0.00 0.00 0.00 62 1006.4
20260505013555 76 137 2.0 9.0 0.00 0.00 0.00 62 1006.4
20260505013052 76 264 4.0 10.0 0.00 0.00 0.00 62 1006.3
20260505012550 77 109 1.0 6.0 0.00 0.00 0.00 61 1006.4
20260505012047 77 215 3.0 6.0 0.00 0.00 0.00 61 1006.2
20260505011542 77 213 2.0 7.0 0.00 0.00 0.00 61 1006.2
20260505011040 77 132 2.0 10.0 0.00 0.00 0.00 61 1006.3
20260505010535 77 144 4.0 7.0 0.00 0.00 0.00 60 1006.4
20260505010032 77 131 2.0 8.0 0.00 0.00 0.00 60 1006.2
20260505005528 77 240 4.0 17.0 0.00 0.00 0.00 60 1006.3
20260505005026 77 139 2.0 7.0 0.00 0.00 0.00 59 1006.3
20260505004523 78 138 6.0 11.0 0.00 0.00 0.00 59 1006.4
20260505004020 78 139 2.0 10.0 0.00 0.00 0.00 59 1006.5
20260505003517 78 206 7.0 9.0 0.00 0.00 0.00 58 1006.6
20260505003014 78 182 3.0 11.0 0.00 0.00 0.00 58 1006.2
20260505002509 79 219 6.0 15.0 0.00 0.00 0.00 57 1006.4
20260505002008 79 180 1.0 13.0 0.00 0.00 0.00 57 1006.5
20260505001505 79 227 6.0 10.0 0.00 0.00 0.00 56 1006.4
20260505001002 79 53 2.0 13.0 0.00 0.00 0.00 56 1006.5
20260505000500 79 166 2.0 7.0 0.00 0.00 0.00 57 1006.5
20260504235956 79 217 4.0 15.0 0.00 0.00 0.00 56 1006.5
20260504235454 80 116 7.0 9.0 0.00 0.00 0.00 55 1006.6
20260504234950 79 187 5.0 9.0 0.00 0.00 0.00 55 1006.7
20260504234447 79 195 5.0 10.0 0.00 0.00 0.00 56 1006.6
20260504233944 79 147 1.0 10.0 0.00 0.00 0.00 56 1006.7
20260504233439 79 171 3.0 11.0 0.00 0.00 0.00 56 1006.7
20260504232937 80 88 4.0 11.0 0.00 0.00 0.00 55 1006.7
20260504232434 80 208 2.0 8.0 0.00 0.00 0.00 55 1006.7
20260504231931 80 166 4.0 8.0 0.00 0.00 0.00 54 1006.7
20260504231427 80 202 3.0 10.0 0.00 0.00 0.00 53 1006.9
20260504230923 81 158 2.0 14.0 0.00 0.00 0.00 52 1006.9
20260504230420 81 226 5.0 14.0 0.00 0.00 0.00 52 1006.9
20260504225920 82 164 7.0 13.0 0.00 0.00 0.00 51 1007.0
20260504225416 82 187 6.0 16.0 0.00 0.00 0.00 51 1007.3
20260504224913 83 200 2.0 8.0 0.00 0.00 0.00 51 1007.2
20260504224410 82 229 5.0 13.0 0.00 0.00 0.00 51 1007.2